STARLINK-30059 (55714 NORAD) Tracking and Keplerian Element Data

This shows tracking and keplerian element data for the satellite.

Feedback or suggestion? Click here.




ElementValue
Catalog55714
NameSTARLINK-30059
Epoch Orbit513
Epoch Day85.16667824
Epoch Year2023
RAAN126.9048
Inclination43
Eccentricity0.0001132
Argument of Perigee262.5239
Mean Anonmoly326.2326
Mean Motion15.67821405
Decay Rate0.00108903
L11 55714U 23026V 23085.16667824 .00108903 00000+0 95300-3 0 9993
L22 55714 43.0000 126.9048 0001132 262.5239 326.2326 15.67821405 5139



Live tracking and technical data element details for STARLINK-30059 (NORAD 55714). STARLINK-30059 can be tracked NOW for your location showing map with azimuth and elevation plus other details from your city location.







IsCatalogInMostPopularTable: catalog: 55714, numindb: 11
Update: records affected: 1



GetName: 55714 STARLINK-30059

Hit Count: updated at: Tue, 28 Mar 2023 02:22:46 GMT